Regional Weather Roundup
Issued by NWS Charleston, SC

Current Version | Previous Version | Text Only | Print | Product List | Glossary Off
Versions: 1 2 3 4 5 6 7 8 9 10 11 12 13 14 15 16 17 18 19 20 21 22 23 24 25 26 27 28 29 30 31 32 33 34 35 36 37 38 39 40 41 42 43 44 45 46 47 48 49 50

000
ASUS42 KCHS 241811
RWRCHS

REGIONAL WEATHER ROUNDUP
NATIONAL WEATHER SERVICE CHARLESTON SC
100 PM EST FRI FEB 24 2017

NOTE: "FAIR" INDICATES FEW OR NO CLOUDS BELOW 12,000 FEET WITH NO
SIGNIFICANT WEATHER AND/OR OBSTRUCTIONS TO VISIBILITY.

NOT ALL STATIONS ARE QUALITY CONTROLLED. USE DATA WITH CAUTION...
ESPECIALLY DEWPOINT OBSERVATIONS.

SCZ027-030-031-034>040-042>050-241900-
...SOUTHEAST SOUTH CAROLINA...

CITY           SKY/WX    TMP DP  RH WIND       PRES   REMARKS
N CHARLESTON   MOSUNNY   79  58  48 E10       29.86F
6HR MIN TEMP:  55; 6HR MAX TEMP:  80;

WATERFRONT PRK   N/A     73  64  73 E8        29.86F
MOUNT PLEASANT FAIR      77  63  61 E5        29.87F
JOHNS ISLAND   FAIR      77  63  61 NE10      29.87F
PINOPOLIS        N/A     64  63  94 NW8       29.80F
MONCKS CORNER  CLOUDY    73  57  56 N5        29.87F
SUMMERVILLE    FAIR      77  55  47 E5        29.87F
BEAUFORT MCAS  MOSUNNY   77  61  57 VRB6      29.86F
6HR MIN TEMP:  57; 6HR MAX TEMP:  78;

BEAUFORT ARPT  FAIR      75  61  60 NE8       29.86F
HILTON HEAD IS SUNNY     73  64  73 NE7       29.88F
WALTERBORO     MOCLDY    77  57  50 E6        29.87F
ALLENDALE      FAIR      77  57  50 CALM      29.86F

...SOUTHERN MIDLANDS AND PEE DEE...

CITY           SKY/WX    TMP DP  RH WIND       PRES   REMARKS
GEORGETOWN     FAIR      75  61  60 E9        29.89F
KINGSTREE      MOCLDY    73  55  53 CALM      29.88F
ORANGEBURG     MOSUNNY   76  58  53 E7        29.88F
BARNWELL       FAIR      79  59  50 SE6       29.87F
AIKEN          FAIR      77  54  44 SW3       29.91F
MANNING        FAIR     N/A N/A N/A MISG      29.87F
COLUMBIA       MOSUNNY   77  56  48 VRB3      29.87F
6HR MIN TEMP:  49; 6HR MAX TEMP:  77;

SUMTER         MOSUNNY   77  57  49 CALM      29.86F
6HR MIN TEMP:  51; 6HR MAX TEMP:  77;

FLORENCE       MOSUNNY   76  58  53 SE7       29.87F
6HR MIN TEMP:  53; 6HR MAX TEMP:  76;

MYRTLE BEACH   MOSUNNY   73  61  64 SE14      29.89F
N MYRTLE BEACH SUNNY     74  61  63 SE9       29.87F
6HR MIN TEMP:  56; 6HR MAX TEMP:  75;


$$

GAZ063-065-086>088-099>101-113>116-118-119-134>141-150-241900-
...SOUTHEAST GEORGIA...

CITY           SKY/WX    TMP DP  RH WIND       PRES   REMARKS
SAVANNAH ARPT  MOSUNNY   79  59  50 E6        29.86F
6HR MIN TEMP:  58; 6HR MAX TEMP:  80;

HUNTER AAF     SUNNY     77  66  68 E9        29.84F
6HR MIN TEMP:  59; 6HR MAX TEMP:  78;

FORT STEWART   MOSUNNY   76  60  58 E3        29.83F
6HR MIN TEMP:  57; 6HR MAX TEMP:  77;

STATESBORO     SUNNY     77  62  60 SE5       29.87F
SYLVANIA       CLEAR    N/A N/A N/A SE5       29.87F
CLAXTON        FAIR      79  64  59 NE6       29.86F

...CSRA...CENTRAL AND FAR SOUTHEAST GEORGIA...

CITY           SKY/WX    TMP DP  RH WIND       PRES   REMARKS
THOMSON        SUNNY     76  59  54 CALM      29.92F
AUGUSTA-BUSH   SUNNY     79  55  43 SW5       29.86F
6HR MIN TEMP:  51; 6HR MAX TEMP:  80;

AUGUSTA-DANIEL SUNNY     77  52  41 VRB6      29.88F
SWAINSBORO     FAIR      77  55  47 S5        29.88F
VIDALIA        MOSUNNY   77  63  61 NE3       29.87F
EASTMAN        FAIR      80  42  26 SE6       29.89F
HAZLEHURST     FAIR      77  63  61 CALM      29.86F
ALMA           PTSUNNY   79  61  53 NE6       29.85F
6HR MIN TEMP:  57; 6HR MAX TEMP:  80;

WAYCROSS       MOSUNNY   81  66  59 E7        29.85F
JESUP          FAIR      79  59  50 SE7       29.85F
BAXLEY         PTSUNNY   77  64  65 SE3       29.86F
BRUNSWICK      SUNNY     77  68  73 NE13      29.86F
SAINT SIMONS   SUNNY     74  63  68 NE13      29.86F
6HR MIN TEMP:  63; 6HR MAX TEMP:  75;


$$

SCZ027-028-034-036>038-045-046-048>050-GAZ119-141-241900-
...LAKE AND SUPPLEMENTAL COASTAL OBSERVATIONS...

STATION/POSITION TIME  TEMP    WIND        PRES    WAVE   SWELL
                       AIR SEA DIR/SP/G            HT/PER HT/PER/DIR
                 (UTC) (F)     (DEG/KT/KT) (MB)    (FT/S) (FT/S/D)
WINYAH BAY       1645   67      60/ 12     1012.0
LAKE MURRAY      1720   68     210/  3/  3 1011.9
ACE BASIN NERRS  NOT AVBL
FORT PULASKI     1748   67 62   70/ 13/ 18 1011.8F
SAPELO ISLAND    1700   74      70/ 12     1011.0

$$

ANZ835-935-AMZ111-154-330-350-352-354-370-450-454-472-241900-
...C-MAN AND BUOY OBSERVATIONS...

STATION/POSITION TIME  TEMP    WIND        PRES    WAVE   SWELL
                       AIR SEA DIR/SP/G            HT/PER HT/PER/DIR
                 (UTC) (F)     (DEG/KT/KT) (MB)    (FT/S) (FT/S/D)
BUOY 41004       1650   68 70   20/ 14/ 16 1011.3    9/11   8/110/11
BUOY 41008       1650   63 62   20/ 10/ 14 1011.1    5/11   5/ 80/11
FOLLY BEACH CMAN 1700   65      70/ 10/ 11 1012.6F
CAPERS NEARSHORE 1708   63 61   60/ 10/ 12 1012.0F
FRIPP NEARSHORE  1708   64 62   60/ 10/ 12 1011.7F


STATION/POSITION TIME  TEMP    WIND        PRES    WAVE   SWELL
                       AIR SEA DIR/SP/G            HT/PER HT/PER/DIR
                 (UTC) (F)     (DEG/KT/KT) (MB)    (FT/S) (FT/S/D)
5E ST. MARYS GA  1730      64                N/A     5/11   3/110/11
FRYING PAN BUOY  1750   69 72   30/ 12/ 16 1011.0F   8/10   7/150/10
BUOY 41025       1750   72 74  120/ 16/ 19 1011.9F   7/10   5/130/10
CAPE LOOKOUT NC  1700   67      40/  8/  9 1012.2F
BUOY 41002       1750   70 70  100/ 12/ 14 1006.6F  12/11  11/110/11
BUOY 41010       NOT AVBL
ST AUGUSTINE FL  1800   66 68  360/ 12/ 14 1011.3F


$$



USA.gov is the U.S. government's official web portal to all federal, state and local government web resources and services.